Location: Kernascl�den
(48.0062°N, 3.3198°W)
Time: 05:47:35
(UTC+00:00)

DMSP B5D1-3 - Visible Passes

Search period start: 13 May 2021 00:00
Search period end: 23 May 2021 00:00
Orbit: 766 x 781 km, 98.5° (Epoch: 12 May)

Date Brightness Start Highest point End Pass type
(mag) Time Alt. Az. Time Alt. Az. Time Alt. Az.
13 May 8.0 21:17:29 10° NNW 21:19:03 11° NW 21:20:38 10° WNW visible
14 May 7.4 20:41:37 10° NNW 20:45:16 20° WNW 20:48:56 10° WSW visible
16 May 7.9 21:13:31 10° NNW 21:15:27 12° NW 21:17:24 10° WNW visible
17 May 7.4 20:37:51 10° N 20:41:39 22° WNW 20:45:28 10° WSW visible
19 May 7.8 21:09:36 10° NNW 21:11:52 13° NW 21:14:07 10° W visible
20 May 7.3 20:34:06 10° N 20:38:02 23° WNW 20:41:58 10° WSW visible
22 May 7.7 21:05:44 10° NNW 21:08:15 14° NW 21:10:46 10° W visible
